Voltar ao catálogo

ARIANE 44L+3 R/B

AtivoHEO
NORAD 23766·ROCKET BODY·🇫🇷 France

Lançado Jan 12, 1996 de Guiana Space Centre

Loading…

Próximas Passagens (próximas 24 horas)

TLE

AtualizadoSource: Space-Track

Época: Sep 14, 2026, 10:36 UTC

1 23766U 96002C   26257.44192484  .00004985  00000-0  20272-2 0  9990
2 23766   8.0466  13.3413 6288428 155.9005 255.2565  3.58739659331729

Acompanhe ARIANE 44L+3 R/B em tempo real com AllMySat

Download on the App Store